Regional Weather Roundup
Issued by NWS Newport/Morehead, NC

Current Version | Previous Version | Text Only | Print | Product List | Glossary On
Versions: 1 2 3 4 5 6 7 8 9 10 11 12 13 14 15 16 17 18 19 20 21 22 23 24 25 26 27 28 29 30 31 32 33 34 35 36 37 38 39 40 41 42 43 44 45 46 47 48 49 50
000 ASUS42 KMHX 280313 RWRMHX WEATHER ROUNDUP FOR EASTERN NORTH CAROLINA NATIONAL WEATHER SERVICE NEWPORT/MOREHEAD CITY NC 1100 PM EDT SAT AUG 27 2016 NOTE: "FAIR" INDICATES FEW OR NO CLOUDS BELOW 12,000 FEET WITH NO SIGNIFICANT WEATHER AND/OR OBSTRUCTIONS TO VISIBILITY NCZ015>017-031-032-045>047-102-103-280400- NORTH COAST CITY SKY/WX TMP DP RH WIND PRES REMARKS EDENTON CLEAR N/A N/A N/A NE3 30.15F ELIZABETH CITY CLEAR 78 75 90 NE9 30.15S KITTY HAWK CLEAR 79 78 98 NE5 30.13R MANTEO CLEAR 78 76 94 NE9G16 30.14R $$ NCZ045>047-081-094-103-104-280400- CENTRAL COAST CITY SKY/WX TMP DP RH WIND PRES REMARKS FRISCO PTCLDY 81 77 88 NE5 30.12R $$ NCZ095-097-098-100-101-280400- SOUTHERN COAST CITY SKY/WX TMP DP RH WIND PRES REMARKS BEAUFORT CLEAR 78 76 93 N5 30.12S CEDAR ISLAND NOT AVBL JACKSONVILLE CLEAR 79 75 87 CALM 30.12S PINEY ISLAND NOT AVBL WILMINGTON PTCLDY 78 75 90 NE3 30.12S $$ NCZ011>013-027>030-043-044-078>080-089-090>093-098-280400- COASTAL PLAIN CITY SKY/WX TMP DP RH WIND PRES REMARKS AHOSKIE CLEAR 75 70 83 CALM 30.16S CLINTON CLEAR 77 77 99 CALM 30.12F ELIZABETHTOWN CLOUDY 77 74 91 CALM 30.12R GOLDSBORO NOT AVBL GREENVILLE CLEAR 79 75 89 E3 30.16R HAVELOCK PTCLDY 79 75 87 CALM 30.14R KENANSVILLE CLEAR 73 73 100 CALM 30.13S KINSTON CLEAR 78 74 88 CALM 30.14S NEW BERN MOCLDY 79 76 90 CALM 30.14S RICHLANDS FOG 75 75 100 N3 30.13S VSB 1/4 ROCKY MOUNT CLEAR 78 72 81 NE5 30.15R WASHINGTON CLEAR 76 74 91 NE3 30.14S WHITEVILLE PTCLDY 78 75 91 CALM 30.11S $$ AMZ130-135-150-152-154-156-158-170-250-252-270-ANZ085-086-088-633-658-670-280400- MARINE OBSERVATIONS STATION/POSITION TIME TEMP WIND PRES WAVE SWELL AIR SEA DIR/SP/G HT/PER HT/PER (UTC) (F) (DEG/KT/KT) (MB) (FT/S) (FT/S) CHESAPEAKE LIGHT NOT AVBL 64 E VA BEACH 0250 80 81 40/ 14/ 17 1020.1 3/ 9 2/ 9 DUCK 0200 80 80 40/ 16/ 18 1019.8 2 E DUCK 0211 79 N/A 3/ 9 OREGON INLET 0200 80 80 30/ 10/ 14 1019.7 13E OREGON INLT 0300 82 N/A 3/ 9 2/ 9 HATTERAS CG 0200 82 85 40/ 6/ 9 1019.2 DIAMOND BUOY 0250 80 84 360/ 8/ 8 1019.9 3/ 9 3/ 9 CAPE LOOKOUT 0300 81 30/ 5/ 6 1019.5 BEAUFORT LAB 0200 81 83 20/ 3/ 3 1019.3 30 SE NEW RVR IN 0208 83 84 130/ 2/ 4 1019.6 30 SE NEW RVR IN 0225 84 N/A 3/ 8 27 SE WRIGHTSVLE 0208 83 85 110/ 6/ 10 1019.8 5 SE WRIGHTSVLE 0208 83 84 100/ 4/ 6 1020.8 225 S CAPE HAT 0250 82 84 80/ 12/ 14 1017.5 4/ 8 3/ 8 41 SE CHARLESTON 0250 84 84 80/ 12/ 12 1018.5 4/ 9 3/ 9 $$

USA.gov is the U.S. government's official web portal to all federal, state and local government web resources and services.